contact:dominique.lefevre@mio.osupytheas.fr, maurice.libes@osupytheas.fr, didier.mallarino@osupytheas.fr
Project:EMSO http://www.emso-fr.org/EMSO-France
Depth: 2436.0 m
Title:EMSO Ligure Ouest : Data MII capteur AQUADOPP
Date,Latitude,Longitude,X_East,Y_North,Z_Up,Amplitude_X,Amplitude_Y,Amplitude_Z,Batterie,SoundSpeed,Heading,Pitch,Roll,Pressure,TIS,Speed,Direction
, degrees North, degrees East, m.s-1, m.s-1,m.s-1, 1, 1, 1, Volt, m.s-1, degree, degree, degree, dbar, degree_C, m.s-1, degree
2022-04-27T00:04:03,42.805,6.029,0.037,0.008,0.01,102.0,102.0,100.0,13.4,1505.2,322.5,-0.8,1.8,2470.744,13.28,0.037,77.8
2022-04-27T00:07:03,42.805,6.029,0.036,-0.007,0.017,101.0,101.0,100.0,13.4,1505.2,329.0,-0.8,1.8,2470.748,13.28,0.036,101.0
2022-04-27T00:10:03,42.805,6.029,0.0,0.013,0.012,102.0,102.0,100.0,13.4,1505.2,328.8,-0.8,1.8,2470.67,13.28,0.013,0.0
2022-04-27T00:13:03,42.805,6.029,0.033,-0.017,-0.001,102.0,102.0,101.0,13.4,1505.2,325.8,-0.7,1.8,2470.682,13.28,0.037,117.3
2022-04-27T00:16:03,42.805,6.029,0.03,-0.005,0.001,102.0,102.0,101.0,13.4,1505.2,324.4,-0.8,1.8,2470.591,13.28,0.03,99.5
2022-04-27T00:19:03,42.805,6.029,0.019,0.004,0.016,101.0,103.0,100.0,13.4,1505.2,324.5,-0.8,1.8,2470.64,13.28,0.019,78.1
2022-04-27T00:22:03,42.805,6.029,0.007,0.011,0.011,101.0,103.0,100.0,13.4,1505.2,330.9,-0.8,1.8,2470.67,13.28,0.013,32.5
2022-04-27T00:25:03,42.805,6.029,0.043,-0.003,0.011,102.0,101.0,100.0,13.3,1505.2,324.2,-0.8,1.8,2470.711,13.28,0.043,94.0
2022-04-27T00:28:03,42.805,6.029,0.025,-0.005,0.035,102.0,104.0,100.0,13.4,1505.2,328.6,-0.8,1.8,2470.728,13.28,0.025,101.3
2022-04-27T00:31:03,42.805,6.029,0.007,-0.006,0.0,101.0,103.0,99.0,13.4,1505.2,329.5,-0.8,1.8,2470.684,13.28,0.009,130.6
2022-04-27T00:34:03,42.805,6.029,0.016,0.004,0.021,101.0,103.0,101.0,13.3,1505.2,327.1,-0.8,1.8,2470.653,13.28,0.016,76.0
2022-04-27T00:37:03,42.805,6.029,0.043,-0.019,0.028,101.0,103.0,100.0,13.4,1505.2,332.8,-0.7,1.8,2470.737,13.28,0.047,113.8
2022-04-27T00:40:03,42.805,6.029,-0.017,0.028,0.019,102.0,103.0,99.0,13.3,1505.2,330.5,-0.8,1.8,2470.748,13.28,0.032,328.7
2022-04-27T00:43:03,42.805,6.029,0.028,-0.014,0.021,101.0,103.0,99.0,13.3,1505.2,325.0,-0.7,1.8,2470.701,13.28,0.031,116.6
2022-04-27T00:46:03,42.805,6.029,0.019,0.005,0.044,101.0,103.0,101.0,13.4,1505.2,327.3,-0.8,1.8,2470.724,13.28,0.019,75.3
2022-04-27T00:49:03,42.805,6.029,0.029,0.006,0.038,101.0,103.0,100.0,13.3,1505.2,322.1,-0.8,1.8,2470.754,13.28,0.029,78.3
2022-04-27T00:52:03,42.805,6.029,0.028,-0.001,0.027,101.0,103.0,101.0,13.3,1505.2,325.1,-0.8,1.8,2470.729,13.28,0.028,92.0
2022-04-27T00:55:03,42.805,6.029,0.015,-0.011,0.012,101.0,103.0,100.0,13.4,1505.2,329.1,-0.8,1.8,2470.712,13.28,0.018,126.3
2022-04-27T00:58:03,42.805,6.029,0.014,0.005,0.021,102.0,103.0,100.0,13.4,1505.2,325.1,-0.8,1.8,2470.705,13.28,0.014,70.4
2022-04-27T01:04:03,42.805,6.029,-0.004,-0.011,-0.009,103.0,104.0,101.0,13.3,1505.2,327.2,-0.8,1.8,2470.768,13.28,0.011,200.0
2022-04-27T01:07:03,42.805,6.029,0.034,-0.036,-0.044,104.0,103.0,101.0,13.4,1505.2,325.8,-0.7,1.8,2470.78,13.28,0.049,136.6
2022-04-27T01:10:03,42.805,6.029,0.024,-0.011,0.008,101.0,102.0,101.0,13.3,1505.2,323.2,-0.7,1.8,2470.764,13.28,0.026,114.6
2022-04-27T01:13:03,42.805,6.029,0.019,0.002,0.013,103.0,101.0,100.0,13.4,1505.2,327.8,-0.7,1.8,2470.735,13.28,0.019,84.0
2022-04-27T01:16:03,42.805,6.029,0.03,-0.028,0.011,101.0,102.0,100.0,13.4,1505.2,332.2,-0.8,1.9,2470.756,13.28,0.041,133.0
2022-04-27T01:19:03,42.805,6.029,0.042,-0.011,0.003,100.0,105.0,101.0,13.3,1505.2,326.8,-0.8,1.8,2470.784,13.28,0.043,104.7
2022-04-27T01:22:03,42.805,6.029,0.02,0.006,0.022,101.0,104.0,100.0,13.4,1505.2,324.5,-0.8,1.8,2470.741,13.28,0.02,73.3
2022-04-27T01:25:03,42.805,6.029,0.02,0.01,0.024,101.0,104.0,100.0,13.4,1505.2,328.2,-0.7,1.8,2470.723,13.28,0.022,63.4
2022-04-27T01:28:03,42.805,6.029,0.014,0.003,0.017,103.0,101.0,102.0,13.4,1505.2,325.5,-0.7,1.8,2470.756,13.28,0.014,77.9
2022-04-27T01:31:03,42.805,6.029,0.023,-0.014,-0.001,101.0,103.0,99.0,13.3,1505.2,329.1,-0.7,1.8,2470.769,13.28,0.026,121.3
2022-04-27T01:34:03,42.805,6.029,0.025,0.01,0.037,101.0,102.0,100.0,13.4,1505.2,323.0,-0.8,1.8,2470.725,13.28,0.026,68.2
2022-04-27T01:37:03,42.805,6.029,0.038,-0.006,0.039,100.0,103.0,100.0,13.4,1505.2,327.6,-0.8,1.8,2470.734,13.28,0.038,99.0
2022-04-27T01:40:03,42.805,6.029,0.017,-0.005,-0.004,102.0,103.0,100.0,13.3,1505.2,332.6,-0.8,1.8,2470.707,13.28,0.017,106.4
2022-04-27T01:43:03,42.805,6.029,0.026,0.024,0.028,101.0,104.0,101.0,13.4,1505.2,322.6,-0.8,1.8,2470.714,13.28,0.035,47.3
2022-04-27T01:46:03,42.805,6.029,0.036,-0.018,-0.009,102.0,102.0,100.0,13.4,1505.2,326.1,-0.8,1.8,2470.727,13.28,0.04,116.6
2022-04-27T01:49:03,42.805,6.029,0.034,-0.014,0.008,100.0,103.0,101.0,13.3,1505.2,332.1,-0.8,1.8,2470.7,13.28,0.036,112.4
2022-04-27T01:52:03,42.805,6.029,0.009,-0.005,0.011,102.0,103.0,100.0,13.3,1505.2,325.9,-0.8,1.8,2470.676,13.28,0.01,119.1
2022-04-27T01:55:03,42.805,6.029,0.009,0.007,0.026,101.0,103.0,100.0,13.3,1505.2,322.5,-0.7,1.8,2470.742,13.28,0.011,52.1
2022-04-27T01:58:03,42.805,6.029,0.017,-0.029,-0.012,100.0,103.0,100.0,13.3,1505.2,331.4,-0.7,1.8,2470.752,13.28,0.033,149.6
2022-04-27T02:04:03,42.805,6.029,0.035,0.011,0.019,101.0,103.0,100.0,13.3,1505.2,330.9,-0.7,1.8,2470.783,13.28,0.036,72.6
2022-04-27T02:07:03,42.805,6.029,0.016,-0.002,0.003,102.0,102.0,100.0,13.4,1505.2,325.1,-0.7,1.8,2470.72,13.28,0.016,97.1
2022-04-27T02:10:03,42.805,6.029,0.032,0.005,0.013,101.0,102.0,99.0,13.4,1505.2,324.3,-0.7,1.8,2470.764,13.28,0.032,81.1
2022-04-27T02:13:03,42.805,6.029,-0.001,-0.012,0.003,100.0,103.0,100.0,13.4,1505.2,325.9,-0.7,1.8,2470.745,13.28,0.012,184.8
2022-04-27T02:16:03,42.805,6.029,0.042,0.004,0.034,101.0,102.0,99.0,13.3,1505.2,324.7,-0.8,1.8,2470.749,13.28,0.042,84.6
2022-04-27T02:19:03,42.805,6.029,0.001,-0.002,-0.012,99.0,102.0,101.0,13.3,1505.2,331.7,-0.8,1.8,2470.785,13.28,0.002,153.4
2022-04-27T02:22:03,42.805,6.029,0.039,-0.01,0.004,101.0,101.0,100.0,13.3,1505.2,322.8,-0.8,1.8,2470.683,13.28,0.04,104.4
2022-04-27T02:25:03,42.805,6.029,0.031,-0.013,0.033,102.0,101.0,100.0,13.4,1505.2,322.8,-0.8,1.8,2470.695,13.28,0.033,112.7
2022-04-27T02:28:03,42.805,6.029,0.031,-0.018,0.008,101.0,102.0,100.0,13.4,1505.2,325.7,-0.8,1.8,2470.729,13.28,0.035,120.1
2022-04-27T02:31:03,42.805,6.029,0.047,0.004,0.011,99.0,103.0,100.0,13.3,1505.2,325.4,-0.8,1.9,2470.684,13.28,0.047,85.1
2022-04-27T02:34:03,42.805,6.029,0.048,-0.003,0.006,101.0,103.0,100.0,13.4,1505.2,326.3,-0.8,1.8,2470.744,13.28,0.048,93.6
2022-04-27T02:37:03,42.805,6.029,0.035,0.003,0.005,101.0,102.0,100.0,13.4,1505.2,323.5,-0.7,1.8,2470.692,13.28,0.035,85.1
2022-04-27T02:40:03,42.805,6.029,0.046,-0.015,-0.034,103.0,103.0,99.0,13.4,1505.2,332.5,-0.8,1.8,2470.703,13.28,0.048,108.1
2022-04-27T02:43:03,42.805,6.029,0.037,0.002,0.047,101.0,104.0,99.0,13.4,1505.2,328.3,-0.8,1.8,2470.747,13.28,0.037,86.9
2022-04-27T02:46:03,42.805,6.029,0.037,-0.003,0.047,102.0,102.0,100.0,13.3,1505.2,329.8,-0.8,1.8,2470.709,13.28,0.037,94.6
2022-04-27T02:49:03,42.805,6.029,-0.009,-0.032,-0.039,101.0,102.0,99.0,13.4,1505.2,330.2,-0.8,1.8,2470.725,13.28,0.033,195.7
2022-04-27T02:52:03,42.805,6.029,0.044,0.008,0.053,102.0,104.0,100.0,13.4,1505.2,330.9,-0.8,1.8,2470.729,13.28,0.044,79.7
2022-04-27T02:55:03,42.805,6.029,0.051,0.0,-0.011,100.0,104.0,100.0,13.4,1505.2,324.1,-0.8,1.8,2470.778,13.28,0.051,90.0
2022-04-27T02:58:03,42.805,6.029,0.017,0.026,0.013,101.0,103.0,99.0,13.3,1505.2,322.9,-0.7,1.8,2470.799,13.28,0.031,33.2
2022-04-27T03:04:03,42.805,6.029,0.026,-0.015,0.012,100.0,103.0,100.0,13.4,1505.2,329.4,-0.7,1.8,2470.836,13.28,0.03,120.0
2022-04-27T03:07:03,42.805,6.029,0.035,-0.017,0.012,101.0,103.0,99.0,13.4,1505.2,326.6,-0.8,1.8,2470.754,13.28,0.038,115.9
2022-04-27T03:10:03,42.805,6.029,0.021,-0.014,0.008,99.0,103.0,100.0,13.4,1505.2,328.9,-0.8,1.8,2470.785,13.28,0.025,123.7
2022-04-27T03:13:03,42.805,6.029,0.01,0.006,0.006,100.0,103.0,100.0,13.3,1505.2,325.1,-0.8,1.8,2470.804,13.28,0.011,59.0
2022-04-27T03:16:03,42.805,6.029,0.016,0.004,0.006,101.0,102.0,101.0,13.4,1505.2,331.6,-0.7,1.8,2470.782,13.28,0.016,76.0
2022-04-27T03:19:03,42.805,6.029,0.04,-0.014,-0.004,101.0,102.0,100.0,13.4,1505.2,325.2,-0.7,1.8,2470.818,13.28,0.042,109.3
2022-04-27T03:22:03,42.805,6.029,0.019,-0.008,0.014,101.0,102.0,99.0,13.3,1505.2,325.3,-0.8,1.8,2470.824,13.28,0.02,112.8
2022-04-27T03:25:03,42.805,6.029,0.041,-0.025,-0.016,101.0,101.0,100.0,13.3,1505.2,328.5,-0.8,1.8,2470.833,13.28,0.048,121.4
2022-04-27T03:28:03,42.805,6.029,0.048,-0.022,0.044,100.0,103.0,99.0,13.3,1505.2,332.5,-0.7,1.8,2470.817,13.28,0.052,114.6
2022-04-27T03:31:03,42.805,6.029,-0.001,-0.018,-0.019,100.0,104.0,100.0,13.4,1505.2,325.5,-0.7,1.8,2470.851,13.28,0.018,183.2
2022-04-27T03:34:03,42.805,6.029,0.041,0.006,0.048,100.0,103.0,101.0,13.3,1505.2,332.5,-0.7,1.8,2470.838,13.28,0.041,81.7
2022-04-27T03:37:03,42.805,6.029,0.038,0.0,0.03,101.0,102.0,100.0,13.4,1505.2,324.1,-0.7,1.8,2470.807,13.28,0.038,90.0
2022-04-27T03:40:03,42.805,6.029,0.021,0.001,0.022,102.0,102.0,100.0,13.4,1505.2,321.8,-0.7,1.8,2470.821,13.28,0.021,87.3
2022-04-27T03:43:03,42.805,6.029,0.028,-0.007,0.014,100.0,104.0,100.0,13.4,1505.2,327.1,-0.8,1.8,2470.828,13.28,0.028,104.0
2022-04-27T03:46:03,42.805,6.029,0.058,-0.023,-0.012,102.0,102.0,100.0,13.3,1505.2,329.5,-0.7,1.8,2470.844,13.28,0.062,111.6
2022-04-27T03:49:03,42.805,6.029,0.033,-0.016,0.038,101.0,104.0,100.0,13.4,1505.2,326.8,-0.8,1.8,2470.843,13.28,0.036,115.9
2022-04-27T03:52:03,42.805,6.029,0.011,0.003,-0.003,101.0,102.0,100.0,13.3,1505.2,329.8,-0.7,1.8,2470.897,13.28,0.011,74.7
2022-04-27T03:55:03,42.805,6.029,0.024,0.003,0.033,102.0,101.0,100.0,13.3,1505.2,327.8,-0.8,1.8,2470.804,13.28,0.024,82.9
2022-04-27T03:58:03,42.805,6.029,0.023,-0.012,-0.008,102.0,103.0,100.0,13.3,1505.2,324.4,-0.8,1.9,2470.789,13.28,0.025,117.6
2022-04-27T04:04:03,42.805,6.029,0.031,-0.01,0.002,101.0,102.0,100.0,13.4,1505.2,325.9,-0.8,1.8,2470.842,13.28,0.032,107.9
2022-04-27T04:07:03,42.805,6.029,0.029,-0.01,0.017,101.0,102.0,101.0,13.3,1505.2,330.4,-0.8,1.8,2470.857,13.28,0.03,109.0
2022-04-27T04:10:03,42.805,6.029,0.033,0.005,0.036,102.0,102.0,101.0,13.3,1505.2,327.5,-0.7,1.8,2470.895,13.28,0.033,81.4
2022-04-27T04:13:03,42.805,6.029,0.008,-0.011,0.045,102.0,103.0,100.0,13.4,1505.2,325.4,-0.8,1.9,2470.845,13.28,0.013,144.0
2022-04-27T04:16:03,42.805,6.029,0.04,-0.01,0.013,102.0,102.0,101.0,13.3,1505.2,325.2,-0.7,1.8,2470.829,13.28,0.041,104.0
2022-04-27T04:19:03,42.805,6.029,0.039,-0.011,0.006,99.0,102.0,101.0,13.3,1505.2,326.6,-0.7,1.9,2470.857,13.28,0.04,105.7
2022-04-27T04:22:03,42.805,6.029,0.03,-0.012,0.014,102.0,103.0,100.0,13.4,1505.2,325.0,-0.8,1.8,2470.875,13.28,0.032,111.8
2022-04-27T04:25:03,42.805,6.029,0.0,0.025,0.007,101.0,102.0,100.0,13.4,1505.2,327.6,-0.8,1.8,2470.903,13.28,0.025,0.0
2022-04-27T04:28:03,42.805,6.029,0.017,-0.019,0.003,100.0,103.0,101.0,13.4,1505.2,322.8,-0.7,1.8,2470.879,13.28,0.025,138.2
2022-04-27T04:31:03,42.805,6.029,0.011,-0.031,0.0,101.0,101.0,101.0,13.4,1505.2,330.3,-0.8,1.8,2470.857,13.28,0.032,160.5
2022-04-27T04:34:03,42.805,6.029,0.007,-0.013,0.006,101.0,102.0,100.0,13.4,1505.2,328.6,-0.8,1.8,2470.845,13.28,0.014,151.7
2022-04-27T04:37:03,42.805,6.029,0.033,-0.006,0.018,101.0,103.0,100.0,13.4,1505.2,325.5,-0.7,1.8,2470.858,13.28,0.033,100.3
2022-04-27T04:40:03,42.805,6.029,0.009,-0.018,0.019,101.0,102.0,101.0,13.4,1505.2,324.8,-0.8,1.8,2470.81,13.28,0.02,153.4
2022-04-27T04:43:03,42.805,6.029,0.037,-0.022,-0.031,101.0,103.0,100.0,13.4,1505.2,327.4,-0.8,1.8,2470.863,13.28,0.043,120.7
2022-04-27T04:46:03,42.805,6.029,0.009,-0.005,0.0,117.0,104.0,100.0,13.4,1505.2,327.5,-0.7,1.8,2470.826,13.28,0.01,119.1
2022-04-27T04:49:03,42.805,6.029,0.011,0.006,0.029,100.0,103.0,101.0,13.4,1505.2,323.0,-0.8,1.8,2470.874,13.28,0.012,61.4
2022-04-27T04:52:03,42.805,6.029,0.042,0.001,0.005,102.0,104.0,100.0,13.3,1505.2,323.1,-0.8,1.8,2470.869,13.28,0.042,88.6
2022-04-27T04:55:03,42.805,6.029,0.018,0.001,0.035,101.0,104.0,100.0,13.4,1505.2,327.4,-0.7,1.8,2470.907,13.28,0.018,86.8
2022-04-27T04:58:03,42.805,6.029,0.037,-0.008,0.036,102.0,102.0,100.0,13.3,1505.2,326.8,-0.8,1.8,2470.88,13.28,0.037,102.2
2022-04-27T05:04:03,42.805,6.029,0.029,-0.012,0.017,102.0,103.0,100.0,13.4,1505.2,322.8,-0.7,1.8,2470.95,13.28,0.031,112.5
2022-04-27T05:07:03,42.805,6.029,0.029,-0.001,-0.001,102.0,102.0,100.0,13.4,1505.2,324.5,-0.8,1.8,2470.896,13.28,0.029,92.0
2022-04-27T05:10:03,42.805,6.029,0.014,-0.027,-0.025,102.0,102.0,99.0,13.4,1505.2,327.1,-0.8,1.8,2470.898,13.28,0.03,152.6
2022-04-27T05:13:03,42.805,6.029,0.012,0.017,0.012,103.0,102.0,100.0,13.4,1505.2,323.4,-0.8,1.8,2470.919,13.28,0.02,35.2
2022-04-27T05:16:03,42.805,6.029,0.029,0.0,0.0,102.0,102.0,101.0,13.4,1505.2,325.9,-0.8,1.9,2470.93,13.28,0.028,90.0
2022-04-27T05:19:03,42.805,6.029,0.041,-0.014,-0.028,102.0,102.0,100.0,13.4,1505.2,331.1,-0.7,1.8,2470.886,13.28,0.043,108.9
2022-04-27T05:22:03,42.805,6.029,0.013,0.006,0.007,102.0,104.0,99.0,13.4,1505.2,325.2,-0.7,1.8,2470.884,13.28,0.014,65.2
2022-04-27T05:25:03,42.805,6.029,0.001,-0.017,0.0,102.0,101.0,100.0,13.4,1505.2,329.4,-0.8,1.8,2470.913,13.28,0.017,176.6
2022-04-27T05:28:03,42.805,6.029,0.036,0.007,0.024,101.0,102.0,100.0,13.4,1505.2,332.5,-0.8,1.8,2470.855,13.28,0.036,79.0
2022-04-27T05:31:03,42.805,6.029,0.033,-0.01,0.003,101.0,101.0,101.0,13.3,1505.2,325.6,-0.7,1.8,2470.788,13.28,0.034,106.9
2022-04-27T05:34:03,42.805,6.029,0.027,-0.019,-0.022,102.0,101.0,100.0,13.4,1505.2,331.1,-0.7,1.8,2470.846,13.28,0.033,125.1
2022-04-27T05:37:03,42.805,6.029,0.039,0.008,0.034,102.0,101.0,100.0,13.4,1505.2,322.8,-0.7,1.8,2470.841,13.28,0.039,78.4
2022-04-27T05:40:03,42.805,6.029,0.039,-0.015,-0.021,102.0,101.0,101.0,13.3,1505.2,323.2,-0.8,1.8,2470.835,13.28,0.041,111.0
2022-04-27T05:43:03,42.805,6.029,0.036,-0.019,-0.018,103.0,101.0,100.0,13.3,1505.2,324.5,-0.7,1.8,2470.808,13.28,0.04,117.8
2022-04-27T05:46:03,42.805,6.029,0.023,-0.005,0.019,101.0,100.0,100.0,13.3,1505.2,325.0,-0.8,1.8,2470.788,13.28,0.023,102.3
2022-04-27T05:49:03,42.805,6.029,0.0,-0.017,-0.035,101.0,101.0,100.0,13.3,1505.2,329.2,-0.7,1.8,2470.848,13.28,0.017,180.0
2022-04-27T05:52:03,42.805,6.029,0.012,-0.014,0.016,102.0,102.0,101.0,13.4,1505.2,327.7,-0.7,1.8,2470.817,13.28,0.018,139.4
2022-04-27T05:55:03,42.805,6.029,0.031,-0.018,0.014,102.0,100.0,101.0,13.3,1505.2,329.7,-0.7,1.8,2470.823,13.28,0.035,120.1
2022-04-27T05:58:03,42.805,6.029,0.044,-0.012,0.025,101.0,102.0,100.0,13.4,1505.2,323.3,-0.8,1.8,2470.768,13.28,0.045,105.3
2022-04-27T06:04:03,42.805,6.029,0.013,-0.026,0.014,102.0,102.0,100.0,13.4,1505.2,327.3,-0.8,1.8,2470.814,13.28,0.029,153.4
2022-04-27T06:07:03,42.805,6.029,0.033,-0.005,0.002,102.0,102.0,101.0,13.3,1505.2,324.8,-0.8,1.9,2470.748,13.28,0.033,98.6
2022-04-27T06:10:03,42.805,6.029,0.05,-0.032,0.008,102.0,102.0,101.0,13.3,1505.2,325.8,-0.8,1.8,2470.776,13.28,0.059,122.6
2022-04-27T06:13:03,42.805,6.029,0.054,0.002,0.059,101.0,102.0,101.0,13.4,1505.2,322.2,-0.8,1.8,2470.797,13.28,0.054,87.9
2022-04-27T06:16:03,42.805,6.029,0.02,-0.01,-0.021,102.0,104.0,99.0,13.4,1505.2,329.3,-0.8,1.8,2470.829,13.28,0.022,116.6
2022-04-27T06:19:03,42.805,6.029,0.024,-0.022,0.01,102.0,102.0,100.0,13.4,1505.2,325.4,-0.7,1.8,2470.788,13.28,0.032,132.5
2022-04-27T06:22:03,42.805,6.029,0.024,-0.025,-0.014,99.0,101.0,102.0,13.3,1505.2,325.7,-0.7,1.8,2470.837,13.28,0.034,136.2
2022-04-27T06:25:03,42.805,6.029,0.049,-0.031,0.003,101.0,101.0,101.0,13.3,1505.2,326.0,-0.8,1.8,2470.844,13.28,0.057,122.3
2022-04-27T06:28:03,42.805,6.029,0.024,-0.012,0.04,102.0,102.0,100.0,13.4,1505.2,325.9,-0.7,1.8,2470.818,13.28,0.026,116.6
2022-04-27T06:31:03,42.805,6.029,0.011,-0.032,-0.005,102.0,100.0,101.0,13.3,1505.2,329.2,-0.7,1.8,2470.855,13.28,0.033,161.0
2022-04-27T06:34:03,42.805,6.029,0.035,-0.007,0.035,100.0,101.0,100.0,13.4,1505.2,323.2,-0.8,1.8,2470.876,13.28,0.035,101.3
2022-04-27T06:37:03,42.805,6.029,0.047,-0.019,0.011,102.0,101.0,100.0,13.3,1505.2,324.5,-0.8,1.8,2470.853,13.28,0.05,112.0
2022-04-27T06:40:03,42.805,6.029,0.006,0.001,-0.011,100.0,103.0,101.0,13.3,1505.2,332.6,-0.8,1.8,2470.85,13.28,0.006,80.5
2022-04-27T06:43:03,42.805,6.029,0.023,-0.016,-0.012,101.0,101.0,100.0,13.3,1505.2,323.8,-0.8,1.8,2470.867,13.28,0.028,124.8
2022-04-27T06:46:03,42.805,6.029,0.013,-0.026,-0.046,101.0,101.0,100.0,13.4,1505.2,331.3,-0.8,1.8,2470.865,13.28,0.029,153.4
2022-04-27T06:49:03,42.805,6.029,0.028,-0.024,-0.004,101.0,102.0,100.0,13.3,1505.2,323.9,-0.7,1.8,2470.876,13.28,0.036,130.6
2022-04-27T06:52:03,42.805,6.029,0.03,0.026,0.057,101.0,101.0,100.0,13.4,1505.2,322.9,-0.8,1.8,2470.87,13.28,0.039,49.1
2022-04-27T06:55:03,42.805,6.029,0.047,-0.045,-0.009,101.0,101.0,100.0,13.4,1505.2,328.4,-0.7,1.8,2470.887,13.28,0.065,133.8
2022-04-27T06:58:03,42.805,6.029,0.022,-0.027,-0.017,101.0,101.0,100.0,13.4,1505.2,324.2,-0.8,1.8,2470.911,13.28,0.034,140.8
2022-04-27T07:04:03,42.805,6.029,0.023,0.006,0.004,101.0,101.0,99.0,13.4,1505.2,326.6,-0.8,1.8,2470.938,13.28,0.023,75.4
2022-04-27T07:07:03,42.805,6.029,0.034,0.014,0.024,99.0,102.0,100.0,13.3,1505.2,326.3,-0.7,1.8,2470.954,13.28,0.036,67.6
2022-04-27T07:10:03,42.805,6.029,0.024,-0.01,0.016,101.0,101.0,101.0,13.4,1505.2,329.0,-0.8,1.8,2470.918,13.28,0.026,112.6
2022-04-27T07:13:03,42.805,6.029,0.025,0.0,0.044,102.0,102.0,100.0,13.4,1505.2,322.6,-0.8,1.8,2470.836,13.28,0.025,90.0
2022-04-27T07:16:03,42.805,6.029,0.017,-0.012,-0.002,101.0,101.0,100.0,13.3,1505.2,327.0,-0.8,1.8,2470.869,13.28,0.02,125.2
2022-04-27T07:19:03,42.805,6.029,0.056,-0.021,-0.011,102.0,100.0,100.0,13.3,1505.2,322.8,-0.8,1.8,2470.879,13.28,0.059,110.6
2022-04-27T07:22:03,42.805,6.029,0.016,-0.023,-0.023,100.0,102.0,100.0,13.4,1505.2,329.0,-0.8,1.8,2470.89,13.28,0.028,145.2
2022-04-27T07:25:03,42.805,6.029,0.032,-0.017,0.005,102.0,103.0,100.0,13.4,1505.2,323.1,-0.7,1.8,2470.843,13.28,0.036,118.0
2022-04-27T07:28:03,42.805,6.029,0.037,-0.021,-0.002,101.0,101.0,100.0,13.3,1505.2,323.0,-0.8,1.8,2470.902,13.28,0.042,119.6
2022-04-27T07:31:03,42.805,6.029,0.019,-0.021,0.014,102.0,103.0,100.0,13.4,1505.2,332.8,-0.8,1.8,2470.882,13.28,0.028,137.9
2022-04-27T07:34:03,42.805,6.029,0.035,-0.011,-0.001,101.0,101.0,100.0,13.4,1505.2,323.9,-0.8,1.8,2470.923,13.28,0.036,107.4
2022-04-27T07:37:03,42.805,6.029,0.009,-0.019,-0.04,100.0,101.0,100.0,13.4,1505.2,324.7,-0.8,1.8,2470.89,13.28,0.021,154.7
2022-04-27T07:40:03,42.805,6.029,0.053,-0.01,0.01,102.0,101.0,101.0,13.4,1505.2,321.4,-0.8,1.8,2470.909,13.28,0.053,100.7
2022-04-27T07:43:03,42.805,6.029,0.027,-0.01,0.002,100.0,102.0,101.0,13.4,1505.2,324.8,-0.8,1.8,2470.916,13.28,0.028,110.3
2022-04-27T07:46:03,42.805,6.029,0.029,0.006,0.017,102.0,103.0,100.0,13.4,1505.2,330.1,-0.8,1.8,2470.879,13.28,0.029,78.3
2022-04-27T07:49:03,42.805,6.029,0.023,-0.026,-0.027,100.0,101.0,100.0,13.4,1505.2,322.5,-0.8,1.8,2470.889,13.28,0.034,138.5
2022-04-27T07:52:03,42.805,6.029,0.029,-0.012,0.022,102.0,103.0,100.0,13.3,1505.2,332.5,-0.8,1.8,2470.906,13.28,0.031,112.5
2022-04-27T07:55:03,42.805,6.029,0.013,-0.005,0.019,101.0,101.0,100.0,13.4,1505.2,328.8,-0.8,1.8,2470.892,13.28,0.013,111.0
2022-04-27T07:58:03,42.805,6.029,0.026,-0.007,-0.005,101.0,102.0,100.0,13.4,1505.2,325.3,-0.7,1.8,2470.87,13.28,0.026,105.1
2022-04-27T08:04:03,42.805,6.029,0.013,-0.018,-0.005,102.0,102.0,100.0,13.4,1505.2,329.3,-0.8,1.8,2470.881,13.28,0.022,144.2
2022-04-27T08:07:03,42.805,6.029,0.026,-0.017,0.028,101.0,104.0,101.0,13.3,1505.2,328.8,-0.7,1.8,2470.864,13.28,0.031,123.2
2022-04-27T08:10:03,42.805,6.029,0.035,-0.007,0.008,102.0,102.0,100.0,13.4,1505.2,322.2,-0.8,1.8,2470.848,13.28,0.035,101.3
2022-04-27T08:13:03,42.805,6.029,0.038,-0.02,0.006,101.0,103.0,100.0,13.3,1505.2,331.1,-0.8,1.8,2470.853,13.28,0.042,117.8
2022-04-27T08:16:03,42.805,6.029,0.044,-0.01,0.024,101.0,102.0,100.0,13.3,1505.2,326.3,-0.8,1.8,2470.853,13.28,0.045,102.8
2022-04-27T08:19:03,42.805,6.029,0.027,-0.005,0.013,101.0,102.0,100.0,13.4,1505.2,324.9,-0.8,1.8,2470.881,13.28,0.027,100.5
2022-04-27T08:22:03,42.805,6.029,0.02,-0.014,0.003,103.0,102.0,101.0,13.4,1505.2,328.3,-0.7,1.8,2470.884,13.28,0.024,125.0
2022-04-27T08:25:03,42.805,6.029,0.016,0.003,0.014,102.0,102.0,100.0,13.3,1505.2,332.4,-0.7,1.8,2470.896,13.28,0.016,79.4
2022-04-27T08:28:03,42.805,6.029,0.026,-0.006,-0.003,101.0,102.0,100.0,13.4,1505.2,332.5,-0.8,1.8,2470.86,13.28,0.026,103.0
2022-04-27T08:31:03,42.805,6.029,0.041,-0.012,0.042,101.0,101.0,100.0,13.4,1505.2,325.5,-0.8,1.8,2470.894,13.28,0.042,106.3
2022-04-27T08:34:03,42.805,6.029,0.018,0.003,0.023,101.0,103.0,101.0,13.4,1505.2,327.1,-0.8,1.8,2470.831,13.28,0.018,80.5
2022-04-27T08:37:03,42.805,6.029,0.01,-0.014,-0.001,101.0,102.0,100.0,13.3,1505.2,329.6,-0.7,1.8,2470.832,13.28,0.017,144.5
2022-04-27T08:40:03,42.805,6.029,0.039,-0.021,-0.015,101.0,102.0,101.0,13.4,1505.2,323.3,-0.8,1.8,2470.808,13.28,0.044,118.3
2022-04-27T08:43:03,42.805,6.029,0.043,-0.014,-0.017,101.0,102.0,100.0,13.3,1505.2,329.3,-0.8,1.8,2470.81,13.28,0.045,108.0
2022-04-27T08:46:03,42.805,6.029,0.029,-0.029,-0.008,101.0,102.0,100.0,13.3,1505.2,325.8,-0.8,1.8,2470.799,13.28,0.041,135.0
2022-04-27T08:49:03,42.805,6.029,0.023,-0.007,0.038,101.0,102.0,100.0,13.4,1505.2,322.2,-0.8,1.8,2470.84,13.28,0.024,106.9
2022-04-27T08:52:03,42.805,6.029,0.037,-0.003,-0.009,103.0,101.0,100.0,13.4,1505.2,332.6,-0.7,1.8,2470.785,13.28,0.037,94.6
2022-04-27T08:55:03,42.805,6.029,0.026,-0.02,-0.023,102.0,101.0,101.0,13.4,1505.2,330.3,-0.8,1.8,2470.791,13.28,0.032,127.6
2022-04-27T08:58:03,42.805,6.029,0.034,-0.023,0.011,101.0,102.0,101.0,13.3,1505.2,326.3,-0.8,1.8,2470.794,13.28,0.041,124.1
2022-04-27T09:04:03,42.805,6.029,0.024,-0.019,0.011,100.0,103.0,101.0,13.4,1505.2,325.1,-0.8,1.8,2470.858,13.28,0.03,128.4
2022-04-27T09:07:03,42.805,6.029,0.027,-0.009,0.008,102.0,102.0,100.0,13.4,1505.2,331.5,-0.8,1.9,2470.795,13.28,0.028,108.4
2022-04-27T09:10:03,42.805,6.029,0.022,-0.012,0.019,102.0,103.0,101.0,13.4,1505.2,325.3,-0.8,1.8,2470.86,13.28,0.025,118.6
2022-04-27T09:13:03,42.805,6.029,0.033,-0.003,0.009,104.0,102.0,102.0,13.3,1505.2,326.8,-0.7,1.8,2470.82,13.28,0.033,95.2
2022-04-27T09:16:03,42.805,6.029,0.031,-0.024,-0.036,102.0,103.0,101.0,13.4,1505.2,321.7,-0.8,1.8,2470.84,13.28,0.039,127.7
2022-04-27T09:19:03,42.805,6.029,0.037,-0.024,-0.018,102.0,103.0,101.0,13.4,1505.2,332.1,-0.7,1.8,2470.82,13.28,0.044,123.0
2022-04-27T09:22:03,42.805,6.029,0.04,-0.023,0.006,101.0,104.0,101.0,13.4,1505.2,327.4,-0.7,1.8,2470.848,13.28,0.046,119.9
2022-04-27T09:25:03,42.805,6.029,0.021,-0.017,-0.012,102.0,102.0,101.0,13.4,1505.2,330.0,-0.7,1.8,2470.813,13.28,0.027,129.0
2022-04-27T09:28:03,42.805,6.029,0.03,-0.009,0.008,102.0,104.0,101.0,13.3,1505.2,329.4,-0.8,1.8,2470.848,13.28,0.031,106.7
2022-04-27T09:31:03,42.805,6.029,0.006,0.006,0.008,101.0,102.0,101.0,13.4,1505.2,329.6,-0.8,1.8,2470.816,13.28,0.008,45.0
2022-04-27T09:34:03,42.805,6.029,0.04,-0.015,-0.023,101.0,102.0,101.0,13.3,1505.2,329.3,-0.8,1.8,2470.767,13.28,0.042,110.6
2022-04-27T09:37:03,42.805,6.029,0.023,-0.015,-0.017,101.0,102.0,101.0,13.4,1505.2,332.5,-0.7,1.8,2470.792,13.28,0.027,123.1
2022-04-27T09:40:03,42.805,6.029,0.039,-0.014,0.01,102.0,102.0,101.0,13.4,1505.2,327.0,-0.7,1.8,2470.77,13.28,0.041,109.7
2022-04-27T09:43:03,42.805,6.029,0.029,-0.009,0.001,102.0,103.0,100.0,13.3,1505.2,329.2,-0.8,1.8,2470.769,13.28,0.03,107.2
2022-04-27T09:46:03,42.805,6.029,0.041,-0.01,0.049,103.0,102.0,100.0,13.3,1505.2,326.6,-0.8,1.8,2470.743,13.28,0.042,103.7
2022-04-27T09:49:03,42.805,6.029,0.03,-0.016,0.008,103.0,101.0,101.0,13.4,1505.2,324.2,-0.8,1.8,2470.767,13.28,0.034,118.1
2022-04-27T09:52:03,42.805,6.029,0.004,-0.002,-0.009,102.0,103.0,101.0,13.4,1505.2,324.6,-0.7,1.8,2470.765,13.28,0.004,116.6
2022-04-27T09:55:03,42.805,6.029,0.024,-0.014,-0.002,102.0,103.0,101.0,13.4,1505.2,326.4,-0.7,1.8,2470.788,13.28,0.027,120.3
2022-04-27T09:58:03,42.805,6.029,0.024,-0.002,0.026,104.0,102.0,100.0,13.4,1505.2,327.4,-0.8,1.8,2470.76,13.28,0.024,94.8
2022-04-27T10:04:03,42.805,6.029,0.021,-0.015,0.005,103.0,102.0,101.0,13.4,1505.2,324.6,-0.8,1.9,2470.773,13.28,0.025,125.5